Location: Waco, TX
(31.5480°N, 97.1670°W)
Time: 15:57:05
(UTC-06:00)

ISS - Pass Details

Date: 11 November 2018
Orbit: 402 x 409 km, 51.6° (Epoch: 14 November)

Event Time Altitude Azimuth Distance (km) Brightness Sun altitude
Rises 07:26:40 0° 314° (NW) 2,320 -0.6 5.8°
Reaches altitude 10° 07:28:45 10° 313° (NW) 1,459 -1.6 6.2°
Maximum altitude 07:32:01 80° 226° (SW) 414 -3.7 6.8°
Drops below altitude 10° 07:35:17 10° 140° (SE) 1,456 0.5 7.4°
Sets 07:37:21 0° 139° (SE) 2,313 1.5 7.8°
